Location: Newark
(44.1667°N, 8.2500°E)
Time: 17:53:09
(UTC+00:00)

S-56A Canister/Altair - Pass Details

Date: 15 December 2019
Orbit: 634 x 2498 km, 38.9° (Epoch: 27 January)

Event Time Altitude Azimuth Distance (km) Brightness Sun altitude
Rises 13:22:43 0° 282° (WNW) 6,117 12.3 17.1°
Reaches altitude 10° 13:26:52 10° 278° (W) 5,158 12.1 16.8°
Maximum altitude 13:40:54 48° 211° (SSW) 2,874 11.6 15.5°
Drops below altitude 10° 13:52:39 10° 142° (SE) 4,349 11.6 14.3°
Sets 13:55:50 0° 137° (SE) 5,119 11.9 13.9°
